Starlink 31885

operational
NORAD ID: 59660 Int'l Des: 2024-084 Owner: SPXS Country: US Constellation: starlink
LEOCIRCULAR

Über Starlink 31885

Beschreibung wird geladen...

Live-Position

3D-Globus wird geladen...

Nächste Überflüge

Höhenverlauf

Altitude vs Time

uPlot chart will show altitude changes over time

Zweizeiliger Elementsatz

1 59660U 24084G 25354.64374736 -.00001815 00000-0 -56450-4 0 9994
2 59660 42.9996 124.7859 0000413 238.6118 121.4693 15.27579011 92320
Epoch: 20. Dez. 2025 • Age: 9 hours

Aktueller Status

Höhe 490.6 km
Geschwindigkeit 7.62 km/s
Subsatellitenpunkt -28.96°S, 13.44°W
Startdatum 6. Mai 2024
Alter 1.6 years
Typ internet

Technische Details

Klassifizierung Payload
Masse 730.00 kg
Trockenmasse 700.00 kg
Gesamtmasse 730.00 kg
Länge 0.30 m
Durchmesser 4.10 m
Spannweite 29.00 m
Form Box + pan
Hersteller SPXS
Bus-Typ Starlink V2M
Phasenstatus In Orbit
Besitzer/Staat SPXS/US

Große Konstellationen

Loading constellations...